Home   Weather   Eckernförde   Past weeks

Flag for Germany Past Weather in Eckernförde, Schleswig-Holstein, Germany — Yesterday and Last 2 Weeks

46 °F

Partly sunny.

Feels Like: 42 °F
Forecast: 37 / 49 °F
Wind: 9 mph from Northeast

Location: Schleswig-Jagel

Current Time: Oct 25, 2016 at 12:29:53 PM

Latest Report: Oct 25, 2016 at 11:20 AM

Visibility: 4 mi

Pressure: 30.21 "Hg

Humidity: 93%

Dew Point: 45 °F

Location of EckernfördeLocation

Past Weather in Eckernförde — Graph


Eckernförde Temperature Yesterday

Maximum temperature yesterday: 50 °F (at 1:20 PM)
Minimum temperature yesterday: 37 °F (at 1:20 AM)
Average temperature yesterday: 43 °F

High & Low Weather Summary for the Past Weeks

High57 °F (Oct 18, 3:20 PM)100% (Oct 10, 7:54 PM)30.30 "Hg (Oct 10, 7:54 PM)
Low34 °F (Oct 25, 6:20 AM)63% (Oct 13, 3:20 PM)29.86 "Hg (Oct 15, 4:20 AM)
Average47 °F90%30.07 "Hg
* Reported Oct 10 10:20 AM — Oct 25 10:50 AM, Eckernförde, Weather by CustomWeather, © 2016

Note: Actual official high and low records may vary slightly from our data, if they occured in-between our weather recording intervals... More about our weather records


Eckernförde Weather History for the Previous 24 Hours

Scroll right to see more
Time TempWeatherWind HumidityBarometerVisibility
10:50 AM
Tue, Oct 25
45 °FFog.8 mph100%30.18 "Hg2 mi
10:20 AM43 °FFog.7 mph100%30.18 "Hg1 mi
9:20 AM41 °FFog.5 mph100%30.15 "Hg1 mi
8:20 AM37 °FFog.6 mph100%30.15 "Hg0 mi
7:47 AM37 °FFog.3 mph100%30.12 "Hg0 mi
7:20 AM37 °FFog.1 mph93%30.12 "Hg1 mi
6:20 AM34 °FFog.3 mph100%30.12 "Hg1 mi
5:20 AM37 °FFog.2 mph93%30.09 "Hg0 mi
4:20 AM39 °FChilly.3 mph93%30.09 "Hg0 mi
3:20 AM41 °FQuite cool.7 mph93%30.09 "Hg2 mi
2:20 AM43 °FQuite cool.7 mph100%30.09 "Hg3 mi
1:20 AM41 °FQuite cool.8 mph100%30.09 "Hg2 mi
12:20 AM41 °FQuite cool.7 mph100%30.09 "Hg3 mi
11:20 PM
Mon, Oct 24
43 °FQuite cool.7 mph100%30.09 "Hg3 mi
10:20 PM43 °FQuite cool.7 mph100%30.07 "Hg2 mi
9:20 PM41 °FQuite cool.6 mph100%30.07 "Hg1 mi
8:20 PM43 °FQuite cool.6 mph93%30.07 "Hg0 mi
7:20 PM43 °FQuite cool.6 mph93%30.09 "Hg1 mi
6:20 PM45 °FQuite cool.5 mph93%30.07 "Hg2 mi
5:20 PM48 °FCool.9 mph87%30.07 "Hg4 mi
4:20 PM50 °FPartly sunny.9 mph82%30.07 "HgN/A
3:20 PM50 °FScattered clouds.10 mph76%30.04 "HgN/A
2:20 PM50 °FScattered clouds.12 mph82%30.07 "HgN/A
1:20 PM50 °FScattered clouds.10 mph82%30.07 "HgN/A
12:20 PM48 °FScattered clouds.9 mph87%30.07 "HgN/A
Weather by CustomWeather, © 2016

See weather overviewHow to use our weather pages